Location: Unspecified
(0.0000°N, 0.0000°E)
Time: 18:12:48
(UTC+02:00)

Vanguard 1 Rocket - Visible Passes

Search period start: 29 July 2015 00:00
Search period end: 08 August 2015 00:00
Orbit: 652 x 4226 km, 34.3° (Epoch: 27 July)

Date Brightness Start Highest point End Pass type
(mag) Time Alt. Az. Time Alt. Az. Time Alt. Az.
29 Jul 10.8 02:29:05 34° NNW 02:29:05 34° NNW 02:49:28 10° NE visible
29 Jul 11.6 04:51:31 10° NW 05:08:25 22° N 05:26:06 10° NE visible
29 Jul 11.7 07:29:31 10° NW 07:49:36 29° NNE 08:04:47 10° ENE visible
29 Jul 8.8 22:36:25 10° SW 23:03:49 - ENE 22:41:28 49° SSW visible
30 Jul 10.8 01:21:01 33° NNE 01:21:01 33° NNE 01:33:53 10° NE visible
30 Jul 11.3 03:38:12 15° NW 03:50:19 24° N 04:08:54 10° NE visible
30 Jul 11.8 06:13:21 10° NW 06:32:07 24° N 06:49:00 10° ENE visible
30 Jul 8.8 21:27:01 10° SSW 21:33:02 35° SE 21:35:36 31° ESE visible
30 Jul 10.1 23:50:32 10° WSW 00:12:49 21° NE 00:18:29 10° NE visible
31 Jul 10.9 02:30:00 27° NNW 02:33:21 28° NNW 02:52:19 10° NE visible
31 Jul 11.7 04:56:55 10° NW 05:13:46 22° N 05:31:28 10° NE visible
31 Jul 11.6 07:32:32 10° NW 07:54:15 34° NNE 08:10:01 10° E visible
31 Jul 8.5 22:39:55 10° SW 23:04:29 - NE 22:47:28 88° S visible
01 Aug 10.7 01:21:38 32° N 01:21:38 32° N 01:36:25 10° NE visible
01 Aug 11.5 03:40:44 10° NW 03:55:29 22° N 04:13:10 10° NE visible
01 Aug 11.8 06:17:08 10° NW 06:37:08 27° NNE 06:54:46 10° ENE visible
01 Aug 8.3 21:30:08 10° SSW 21:36:18 49° SE 21:42:16 25° ENE visible
01 Aug 9.8 23:54:39 10° W 00:13:00 26° NNE 00:21:06 10° NE visible
02 Aug 11.1 02:30:06 18° NW 02:38:13 24° N 02:55:29 10° NE visible
02 Aug 11.7 05:01:41 10° NW 05:19:02 23° N 05:37:19 10° NE visible
02 Aug 11.4 07:35:20 10° NW 07:58:36 42° NNE 08:14:51 10° E visible
02 Aug 8.9 20:21:21 10° S 20:25:34 21° SE 20:31:56 10° E visible
02 Aug 8.7 22:43:40 10° WSW 22:51:08 69° NNW 23:06:10 10° NE visible
03 Aug 10.8 01:11:38 10° WNW 01:22:23 28° NNW 01:39:01 10° NE visible
03 Aug 11.6 03:46:16 10° NW 04:00:46 21° N 04:18:11 10° NE visible
03 Aug 11.7 06:20:27 10° NW 06:41:52 32° NNE 07:00:16 10° E visible
03 Aug 8.0 21:33:30 10° SW 21:39:37 71° SE 21:51:26 10° ENE visible
03 Aug 10.1 23:59:07 10° W 00:08:01 36° NNW 00:23:35 10° NE visible
04 Aug 11.3 02:31:12 10° NW 02:43:15 20° N 02:59:11 10° NE visible
04 Aug 11.7 05:05:48 10° NNW 05:24:08 25° NNE 05:43:19 10° ENE visible
04 Aug 11.2 07:38:02 10° NW 08:02:40 50° NNE 08:19:20 10° ESE visible
04 Aug 8.4 20:24:07 10° SSW 20:28:54 32° SE 20:36:34 10° ENE visible
04 Aug 9.2 22:47:40 10° WSW 22:54:58 50° NNW 23:08:55 10° NE visible
05 Aug 11.0 01:17:00 10° WNW 01:27:06 23° N 01:41:45 10° NNE visible
05 Aug 11.6 03:51:18 10° NW 04:06:02 21° N 04:23:56 10° NE visible
05 Aug 11.5 06:23:28 10° NW 06:46:18 38° NNE 07:05:23 10° E visible
05 Aug 8.1 21:37:05 10° WSW 21:43:06 81° NW 21:54:43 10° NE visible
06 Aug 10.5 00:03:56 10° WNW 00:12:25 27° NNW 00:26:00 10° NNE visible
06 Aug 11.4 02:36:52 10° NW 02:48:25 19° N 03:03:36 10° NE visible
06 Aug 11.7 05:09:24 10° NNW 05:28:58 29° NNE 05:49:09 10° ENE visible
06 Aug 11.0 07:40:44 10° NW 08:06:26 61° NNE 08:23:28 10° ESE visible
06 Aug 7.8 20:27:14 10° SW 20:32:14 49° SE 20:40:38 10° ENE visible
06 Aug 9.7 22:51:59 10° W 22:59:02 36° NNW 23:11:29 10° NE visible
07 Aug 11.2 01:22:42 10° NW 01:32:00 19° N 01:44:46 10° NNE visible
07 Aug 11.6 03:55:41 10° NNW 04:11:10 23° NNE 04:30:06 10° ENE visible
07 Aug 11.3 06:26:19 10° NW 06:50:25 46° NNE 07:10:05 10° E visible
07 Aug 8.6 21:40:56 10° WSW 21:46:50 55° NNW 21:57:42 10° NE visible
